Hourly Data Report for October 06, 2017

All times are specified in Local Standard Time (LST). Add 1 hour to adjust for Daylight Saving Time where and when it is observed.

PAULATUK
NORTHWEST TERRITORIES

69°21'28.004" N
124°04'57.005" W
6.30 m
2203058
71984
ZPK

Download Data

Hourly Data (October 2017)
Hourly Data Report for October 6, 2017
Temp Definition
°C
Dew Point Temp Definition
°C
Rel Hum Definition
%
Wind Dir Definition
10's deg

Wind Spd Definition
km/h
Visibility Definition
km
Stn Press Definition
kPa
Hmdx Definition


Wind Chill Definition


Weather Definition


TIME
00:00 1.9 -2.0 75 13 23   99.68     LegendNANA
01:00 1.6 -1.9 78 13 13   99.67     LegendNANA
02:00 1.2 -2.1 79 11 9   99.64     LegendNANA
03:00 1.2 -1.7 81 8 13   99.64     LegendNANA
04:00 1.5 -2.1 77 10 16   99.63     LegendNANA
05:00 0.8 -3.3 74 10 19   99.61     LegendNANA
06:00 0.5 -3.5 74 11 19   99.61     LegendNANA
07:00 -0.4 -3.7 78 8 16   99.61   -5 LegendNANA
08:00 -1.1 -5.4 73 11 22   99.61   -7 LegendNANA
09:00 -0.5 -6.0 66 10 13   99.64   -5 LegendNANA
10:00 -0.4 -6.6 63 9 13   99.67   -5 LegendNANA
11:00 0.1 -6.4 61 9 17   99.67     LegendNANA
12:00 0.4 -7.6 55 11 16   99.71     LegendNANA
13:00 1.4 -7.6 51 28 4   99.75     LegendNANA
14:00 0.9 -6.5 58 8 9   99.80     LegendNANA
15:00 1.4 -6.3 56 9 9   99.83     LegendNANA
16:00 0.5 -5.7 63 6 7   99.87     LegendNANA
17:00 0.1 -5.9 64 6 11   99.90     LegendNANA
18:00 -1.4 -4.5 80 8 7   99.95   -4 LegendNANA
19:00 -1.8 -3.4 89 26 7   99.99   -4 LegendNANA
20:00 -1.5 -4.7 79 26 9   100.03   -5 LegendNANA
21:00 -2.3 -4.6 84 25 6   100.09   -5 LegendNANA
22:00 -2.1 -5.6 77 24 5   100.15   -4 LegendNANA
23:00 -2.8 -6.5 75 13 7   100.23   -6 LegendNANA

Notes on Data Quality.

Legend

  • E = Estimated
  • M = Missing
  • NA = Not Available
  • ‡ = Partner data that is not subject to review by the National Climate Archives
Date modified: